Simultaneous Nadir Overpasses (SNOs) Predictions

Prediction of SNOs between GOES-16 and AQUA Satellite Orbit:

Table of predicted SNOs for the next 14.0 days since TLE Epoch: 2/17/2024
Index Date Time (GOES-16) GOES-16 Lat,Lon AQUA Lat,Lon Distance(km) Time Diff (sec)
1 02/17/2024 07:00:36 -0.07, -75.21 -0.11, -74.92 33.02 80
2 02/19/2024 06:44:59 -0.06, -75.22 -0.96, -71.10 468.20 80
3 02/19/2024 19:05:29 0.06, -75.22 -0.10, -76.07 96.62 80
4 02/21/2024 18:52:30 0.05, -75.23 0.69, -72.24 340.15 80
5 02/22/2024 07:12:51 -0.05, -75.24 0.39, -77.16 218.99 80
6 02/24/2024 06:54:32 -0.04, -75.27 -0.47, -73.35 219.28 80
7 02/24/2024 19:15:02 0.04, -75.27 -0.61, -78.30 344.98 80
8 02/26/2024 19:02:01 0.04, -75.31 0.20, -74.47 94.74 80
9 02/27/2024 07:22:22 -0.03, -75.33 0.84, -79.40 463.35 80
10 02/29/2024 07:06:40 -0.04, -75.37 0.02, -75.56 22.72 80
